Year,Month,Day,Hour,Minute,Value (Times are PST for temperature in C)
2009,09,29,09,05,7.70
2009,09,29,09,06,7.70
2009,09,29,09,07,7.70
2009,09,29,09,08,7.70
2009,09,29,09,09,7.70
2009,09,29,09,10,7.70
2009,09,29,09,11,7.70
2009,09,29,09,12,7.70
2009,09,29,09,13,7.70
2009,09,29,09,14,7.70
2009,09,29,09,15,7.70
2009,09,29,09,16,7.70
2009,09,29,09,17,7.70
2009,09,29,09,18,7.70
2009,09,29,09,19,7.70
2009,09,29,09,20,7.70
2009,09,29,09,21,7.70
2009,09,29,09,22,7.80
2009,09,29,09,23,7.80
2009,09,29,09,24,7.80
2009,09,29,09,25,7.80
2009,09,29,09,26,7.80
2009,09,29,09,27,7.80
2009,09,29,09,28,7.90
2009,09,29,09,29,7.90
2009,09,29,09,30,7.90
2009,09,29,09,31,7.90
2009,09,29,09,32,7.90
2009,09,29,09,33,7.90
2009,09,29,09,34,7.90
2009,09,29,09,35,7.90
2009,09,29,09,36,7.90
2009,09,29,09,37,8.00
2009,09,29,09,38,8.00
2009,09,29,09,39,8.00
2009,09,29,09,40,8.10
2009,09,29,09,41,8.10
2009,09,29,09,42,8.10
2009,09,29,09,43,8.10
2009,09,29,09,44,8.10
2009,09,29,09,45,8.10
2009,09,29,09,46,8.10
2009,09,29,09,47,8.10
2009,09,29,09,48,8.20
2009,09,29,09,49,8.20
2009,09,29,09,50,8.20
2009,09,29,09,51,8.20
2009,09,29,09,52,8.20
2009,09,29,09,53,8.20
2009,09,29,09,54,8.20
2009,09,29,09,55,8.20
2009,09,29,09,56,8.20
2009,09,29,09,57,8.20
2009,09,29,09,58,8.20
2009,09,29,09,59,8.20
2009,09,29,10,00,8.20
2009,09,29,10,01,8.20
2009,09,29,10,02,8.30
2009,09,29,10,03,8.30
2009,09,29,10,04,8.30
2009,09,29,10,05,8.30
2009,09,29,10,06,8.30
2009,09,29,10,07,8.30
2009,09,29,10,08,8.30
2009,09,29,10,09,8.30
2009,09,29,10,10,8.30
2009,09,29,10,11,8.30
2009,09,29,10,12,8.30
2009,09,29,10,13,8.30
2009,09,29,10,14,8.40
2009,09,29,10,15,8.40
2009,09,29,10,16,8.40
2009,09,29,10,17,8.40
2009,09,29,10,18,8.50
2009,09,29,10,19,8.50
2009,09,29,10,20,8.60
2009,09,29,10,21,8.60
2009,09,29,10,22,8.60
2009,09,29,10,23,8.60
2009,09,29,10,24,8.70
2009,09,29,10,25,8.70
2009,09,29,10,26,8.70
2009,09,29,10,27,8.70
2009,09,29,10,28,8.70
2009,09,29,10,29,8.80
2009,09,29,10,30,8.80
2009,09,29,10,31,8.80
2009,09,29,10,32,8.80
2009,09,29,10,33,8.90
2009,09,29,10,34,8.90
2009,09,29,10,35,8.90
2009,09,29,10,36,8.90
2009,09,29,10,37,8.90
2009,09,29,10,38,8.90
2009,09,29,10,39,8.90
2009,09,29,10,40,9.00
2009,09,29,10,41,9.10
2009,09,29,10,42,9.10
2009,09,29,10,43,9.10
2009,09,29,10,44,9.20
2009,09,29,10,45,9.20
2009,09,29,10,46,9.20
2009,09,29,10,47,9.20
2009,09,29,10,48,9.30
2009,09,29,10,49,9.30
2009,09,29,10,50,9.30
2009,09,29,10,51,9.30
2009,09,29,10,52,9.40
2009,09,29,10,53,9.40
2009,09,29,10,54,9.40
2009,09,29,10,55,9.40
2009,09,29,10,56,9.40
2009,09,29,10,57,9.50
2009,09,29,10,58,9.40
2009,09,29,10,59,9.50
2009,09,29,11,00,9.50
2009,09,29,11,01,9.50
2009,09,29,11,02,9.50
2009,09,29,11,03,9.60
2009,09,29,11,04,9.60
2009,09,29,11,05,9.60
2009,09,29,11,06,9.70
2009,09,29,11,07,9.70
2009,09,29,11,08,9.70
2009,09,29,11,09,9.80
2009,09,29,11,10,9.80
2009,09,29,11,11,9.80
2009,09,29,11,12,9.90
2009,09,29,11,13,9.90
2009,09,29,11,14,9.90
2009,09,29,11,15,9.90
2009,09,29,11,16,9.90
2009,09,29,11,17,9.90
2009,09,29,11,18,9.90
2009,09,29,11,19,9.90
2009,09,29,11,20,9.90
2009,09,29,11,21,9.90
2009,09,29,11,22,10.00
2009,09,29,11,23,10.00
2009,09,29,11,24,10.10
2009,09,29,11,25,10.10
2009,09,29,11,26,10.10
2009,09,29,11,27,10.20
2009,09,29,11,28,10.20
2009,09,29,11,29,10.20
2009,09,29,11,30,10.20
2009,09,29,11,31,10.30
2009,09,29,11,32,10.30
2009,09,29,11,33,10.30
2009,09,29,11,34,10.30
2009,09,29,11,35,10.30
2009,09,29,11,36,10.40
2009,09,29,11,37,10.40
2009,09,29,11,38,10.40
2009,09,29,11,39,10.40
2009,09,29,11,40,10.40
2009,09,29,11,41,10.50
2009,09,29,11,42,10.60
2009,09,29,11,43,10.60
2009,09,29,11,44,10.60
2009,09,29,18,25,10.60
2009,09,29,18,26,10.60
2009,09,29,18,27,10.50
2009,09,29,18,28,10.40
2009,09,29,18,29,10.40
2009,09,29,18,30,10.40
2009,09,29,18,31,10.30
2009,09,29,18,32,10.30
2009,09,29,18,33,10.30
2009,09,29,18,34,10.20
2009,09,29,18,35,10.20
2009,09,29,18,36,10.20
2009,09,29,18,37,10.20
2009,09,29,18,38,10.10
2009,09,29,18,39,10.10
2009,09,29,18,40,10.10
2009,09,29,18,41,10.10
2009,09,29,18,42,10.10
2009,09,29,18,43,10.10
2009,09,29,18,44,10.00
2009,09,29,18,45,10.00
2009,09,29,18,46,10.00
2009,09,29,18,47,10.00
2009,09,29,18,48,10.00
2009,09,29,18,49,9.90
2009,09,29,18,50,9.90
2009,09,29,18,51,9.90
2009,09,29,18,52,9.90
2009,09,29,18,53,9.90
2009,09,29,18,54,9.90
2009,09,29,18,55,9.90
2009,09,29,18,56,9.90
2009,09,29,18,57,9.90
2009,09,29,18,58,9.90
2009,09,29,18,59,9.80
2009,09,29,19,00,9.80
2009,09,29,19,01,9.70
2009,09,29,19,02,9.70
2009,09,29,19,03,9.70
2009,09,29,19,04,9.60
2009,09,29,19,05,9.60
2009,09,29,19,06,9.60
2009,09,29,19,07,9.50
2009,09,29,19,08,9.40
2009,09,29,19,09,9.40
2009,09,29,19,10,9.40
2009,09,29,19,11,9.40
2009,09,29,19,12,9.30
2009,09,29,19,13,9.30
2009,09,29,19,14,9.30
2009,09,29,19,15,9.30
2009,09,29,19,16,9.30
2009,09,29,19,17,9.30
2009,09,29,19,18,9.30
2009,09,29,19,19,9.30
2009,09,29,19,20,9.30
2009,09,29,19,21,9.30
2009,09,29,19,22,9.30
2009,09,29,19,23,9.30
2009,09,29,19,24,9.30
2009,09,29,19,25,9.30
2009,09,29,19,26,9.30
2009,09,29,19,27,9.30
2009,09,29,19,28,9.30
2009,09,29,19,29,9.30
2009,09,29,19,30,9.30
2009,09,29,19,31,9.30
2009,09,29,19,32,9.30
2009,09,29,19,33,9.30
2009,09,29,19,34,9.30
2009,09,29,19,35,9.30
2009,09,29,19,36,9.30
2009,09,29,19,37,9.30
2009,09,29,19,38,9.30
2009,09,29,19,39,9.30
2009,09,29,19,40,9.30
2009,09,29,19,41,9.30
2009,09,29,19,42,9.30
2009,09,29,19,43,9.30
2009,09,29,19,44,9.30
2009,09,29,19,45,9.30
2009,09,29,19,46,9.30
2009,09,29,19,47,9.30
2009,09,29,19,48,9.30
2009,09,29,19,49,9.30
2009,09,29,19,50,9.30
2009,09,29,19,51,9.30
2009,09,29,19,52,9.30
2009,09,29,19,53,9.30
2009,09,29,19,54,9.30
2009,09,29,19,55,9.30
2009,09,29,19,56,9.30
2009,09,29,19,57,9.20
2009,09,29,19,58,9.30
2009,09,29,19,59,9.20
2009,09,29,20,00,9.20
2009,09,29,20,01,9.20
2009,09,29,20,02,9.20
2009,09,29,20,03,9.20
2009,09,29,20,04,9.20
2009,09,29,20,05,9.20
2009,09,29,20,06,9.20
2009,09,29,20,07,9.20
2009,09,29,20,08,9.20
2009,09,29,20,09,9.20
2009,09,29,20,10,9.20
2009,09,29,20,11,9.20
2009,09,29,20,12,9.20
2009,09,29,20,13,9.20
2009,09,29,20,14,9.20
2009,09,29,20,15,9.20
2009,09,29,20,16,9.20
2009,09,29,20,17,9.20
2009,09,29,20,18,9.20
2009,09,29,20,19,9.10
2009,09,29,20,20,9.10
2009,09,29,20,21,9.10
2009,09,29,20,22,9.10
2009,09,29,20,23,9.10
2009,09,29,20,24,9.10
2009,09,29,20,25,9.10
2009,09,29,20,26,9.00
2009,09,29,20,27,9.00
2009,09,29,20,28,9.00
2009,09,29,20,29,9.00
2009,09,29,20,30,9.00
2009,09,29,20,31,9.00
2009,09,29,20,32,9.00
2009,09,29,20,33,8.90
2009,09,29,20,34,8.90
2009,09,29,20,35,8.90
2009,09,29,20,36,8.90
2009,09,29,20,37,8.90
2009,09,29,20,38,8.90
2009,09,29,20,39,8.90
2009,09,29,20,40,8.90
2009,09,29,20,41,9.00
2009,09,29,20,42,8.90
2009,09,29,20,43,8.90
2009,09,29,20,44,8.90
2009,09,29,20,45,8.90
2009,09,29,20,46,8.90
2009,09,29,20,47,8.90
2009,09,29,20,48,8.90
2009,09,29,20,49,8.90
2009,09,29,20,50,8.90
2009,09,29,20,51,8.90
2009,09,29,20,52,8.90
2009,09,29,20,53,8.90
2009,09,29,20,54,8.90
2009,09,29,20,55,8.80
2009,09,29,20,56,8.80
2009,09,29,20,57,8.80
2009,09,29,20,58,8.80
2009,09,29,20,59,8.80
2009,09,29,21,00,8.80
2009,09,29,21,01,8.80
2009,09,29,21,02,8.80
2009,09,29,21,03,8.80
2009,09,29,21,04,8.80
2009,09,29,21,05,8.80
2009,09,29,21,06,8.80
2009,09,29,21,07,8.80
2009,09,29,21,08,8.80
2009,09,29,21,09,8.80
2009,09,29,21,10,8.80
2009,09,29,21,11,8.80
2009,09,29,21,12,8.70
2009,09,29,21,13,8.70
2009,09,29,21,14,8.70
2009,09,29,21,15,8.70
2009,09,29,21,16,8.70
2009,09,29,21,17,8.70
2009,09,29,21,18,8.70
2009,09,29,21,19,8.70
2009,09,29,21,20,8.70
2009,09,29,21,21,8.70
2009,09,29,21,22,8.70
2009,09,29,21,23,8.70
2009,09,29,21,24,8.70
2009,09,29,21,25,8.70
2009,09,29,21,26,8.70
2009,09,29,21,27,8.70
2009,09,29,21,28,8.70
2009,09,29,21,29,8.70
2009,09,29,21,30,8.70
2009,09,29,21,31,8.70
2009,09,29,21,32,8.70
2009,09,29,21,33,8.70
2009,09,29,21,34,8.60
2009,09,29,21,35,8.60
2009,09,29,21,36,8.60
2009,09,29,21,37,8.60
2009,09,29,21,38,8.60
2009,09,29,21,39,8.60
2009,09,29,21,40,8.60
2009,09,29,21,41,8.60
2009,09,29,21,42,8.50
2009,09,29,21,43,8.50
2009,09,29,21,44,8.50
2009,09,29,21,45,8.50
2009,09,29,21,46,8.50
2009,09,29,21,47,8.40
2009,09,29,21,48,8.40
2009,09,29,21,49,8.40
2009,09,29,21,50,8.40
2009,09,29,21,51,8.30
2009,09,29,21,52,8.30
2009,09,29,21,53,8.30
2009,09,29,21,54,8.30
2009,09,29,21,55,8.30
2009,09,29,21,56,8.20
2009,09,29,21,57,8.20
2009,09,29,21,58,8.20
2009,09,29,21,59,8.20
2009,09,29,22,00,8.10
2009,09,29,22,01,8.10
2009,09,29,22,02,8.10
2009,09,29,22,03,8.10
2009,09,29,22,04,8.10
2009,09,29,22,05,8.00
2009,09,29,22,06,8.00
2009,09,29,22,07,7.90
2009,09,29,22,08,7.90
2009,09,29,22,09,7.90
2009,09,29,22,10,7.80
2009,09,29,22,11,7.80
2009,09,29,22,12,7.80
2009,09,29,22,13,7.80
2009,09,29,22,14,7.80
2009,09,29,22,15,7.80
2009,09,29,22,16,7.70
2009,09,29,22,17,7.70
2009,09,29,22,18,7.70
2009,09,29,22,19,7.70
2009,09,29,22,20,7.70
2009,09,29,22,21,7.70
2009,09,29,22,22,7.70
2009,09,29,22,23,7.60
2009,09,29,22,24,7.60
2009,09,29,22,25,7.60
2009,09,29,22,26,7.60
2009,09,29,22,27,7.60
2009,09,29,22,28,7.50
2009,09,29,22,29,7.50
2009,09,29,22,30,7.40
2009,09,29,22,31,7.40
2009,09,29,22,32,7.40
2009,09,29,22,33,7.30
2009,09,29,22,34,7.30
2009,09,29,22,35,7.30
